sat.trackr.live / text

‹ back to catalog

YAOGAN-9 01B

NORAD 36414 · 2010-009B

PAYLOAD ACTIVE UNKNOWN

§ Identity

Operator
Country
PRC
Launch date
2010-03-05
Launch site
JSC
Launch vehicle
Mass (kg)
RCS (m²)
2.91

External: N2YO · Heavens-Above · Gunter

§ Orbital elements

Epoch: 2026-09-09T23:12:36.232128Z

Period
107.01 min
Inclination
63.3642°
Eccentricity
0.0545617
Mean motion
13.45723549 rev/d
Perigee alt
680.7 km
Apogee alt
1,495.4 km
Semi-major
7,466.2 km
B*
7.6493e-5
RAAN
138.4434°
Arg perigee
21.5693°
Mean anomaly
340.7388°
Rev number
81,115

§ Raw data

YAOGAN-9 01B1 36414U 10009B   26252.96708602  .00000020  00000+0  76493-4 0  99972 36414  63.3642 138.4434 0545617  21.5693 340.7388 13.45723549811157

JSON: /api/v1/satellites/36414 · /tle

For live sub-satellite position, see the globe view (requires WebGL).

§ Visibility from observer

Set your observer location to see the next 7 days of passes ≥ 10°. The values pass through the URL so the page stays shareable.

No JS? Fill the form by hand. The geolocation button needs JavaScript.